Theta_e
300 300 301 301 301 301 301 301 302 301 302 298 296 299 292 292 291 307 309 310 307 298 290 294 292 289 292 298 296 297 295 293 294 294 295 293 289 291 293 292 291 290 290 289 288 289 286 288 287 288 287 289 287 287 291 292 291 291 284 288 286 290 281 278 277 277 279 281 282 284 282 285 286 284 281 283 283 282 280 279 276 279 274 275 273 272 281
300 300 300 301 301 301 301 301 301 301 301 298 298 294 294 295 297 298 308 310 306 295 285 286 288 290 294 294 293 294 293 293 291 292 294 293 291 292 292 292 295 291 293 291 288 291 284 288 288 283 283 288 286 289 291 293 291 291 288 289 291 284 280 283 271 272 276 277 282 282 283 284 280 280 282 281 280 280 279 278 278 278 276 278 276 276 282
300 300 300 300 301 300 300 301 300 301 302 301 298 293 297 297 300 300 301 307 303 291 293 291 289 286 289 291 288 288 290 294 295 294 293 295 294 293 292 293 294 292 293 291 291 292 290 285 287 283 284 287 285 290 290 294 292 292 292 295 293 285 281 283 277 275 273 271 272 277 281 282 281 281 282 283 284 281 281 278 276 277 278 279 274 280 282
299 300 300 300 300 300 300 300 300 301 302 303 300 299 295 295 285 292 295 300 299 297 298 296 291 288 289 289 288 291 288 292 295 296 294 293 295 292 292 291 294 291 291 288 287 289 288 289 284 285 284 283 285 288 290 293 293 293 295 293 292 282 284 286 284 282 280 282 283 284 285 282 281 282 284 284 286 285 285 281 278 280 281 279 283 284 284
299 300 300 300 300 300 300 300 300 301 302 304 301 300 297 298 290 291 285 293 294 293 294 294 293 288 292 287 290 288 289 290 292 296 291 290 291 289 293 291 290 288 290 287 287 289 285 287 288 285 285 285 285 287 290 292 293 294 293 293 290 284 283 285 284 284 285 283 282 285 288 285 286 284 282 284 284 284 284 282 282 283 276 278 284 283 284
299 299 299 300 300 300 300 300 300 301 304 305 304 293 297 290 292 296 296 288 284 289 290 293 291 293 293 289 292 288 287 287 287 293 293 292 292 289 288 293 293 291 290 289 286 286 284 285 285 286 286 285 284 286 288 292 293 294 292 294 291 287 285 286 285 285 283 280 283 285 287 287 286 285 284 283 284 283 283 284 287 284 283 282 283 283 284
299 299 299 299 300 299 299 299 300 302 304 306 302 292 288 291 293 295 300 292 293 292 293 293 292 291 292 290 290 288 288 288 291 291 288 290 289 293 286 289 292 291 293 291 287 287 283 282 285 285 284 286 285 284 284 287 288 292 289 290 286 288 284 285 285 284 283 281 282 284 285 283 283 284 284 285 283 284 285 286 287 286 286 288 285 281 281
298 298 299 299 300 299 299 299 301 303 303 306 300 291 292 290 292 291 296 295 293 294 294 292 292 290 293 288 289 290 289 288 291 292 290 287 290 294 290 290 292 292 292 292 289 289 290 289 285 287 287 285 287 286 287 285 284 286 286 287 284 288 278 285 281 278 279 281 282 283 283 284 282 282 284 285 285 285 286 287 287 285 285 287 284 283 285
299 298 299 299 299 299 299 299 300 302 303 298 294 286 289 297 299 298 294 291 292 294 293 291 291 289 291 288 290 290 290 289 292 291 294 292 290 292 291 292 291 292 292 292 291 293 293 293 291 290 289 285 288 287 281 286 286 285 285 284 284 284 277 278 279 278 274 279 280 279 280 280 280 281 282 283 284 283 285 283 285 283 285 285 282 283 285
299 298 299 299 299 299 299 299 300 301 301 294 291 291 288 292 294 300 297 290 294 291 292 292 291 287 291 291 291 290 290 292 293 289 291 293 295 294 294 293 292 290 291 290 293 295 295 293 291 293 293 292 290 289 290 291 288 287 286 284 286 284 281 279 278 279 275 277 279 280 280 280 278 281 284 284 285 286 285 287 287 288 288 284 283 285 285
299 298 298 299 299 298 299 299 299 301 297 291 289 289 292 298 295 296 296 289 291 292 291 290 289 291 293 294 292 293 292 292 293 288 287 292 291 293 294 292 290 290 290 293 294 292 291 292 292 292 292 291 290 291 292 292 293 292 289 287 285 286 286 282 284 281 275 276 280 280 278 275 278 289 290 287 285 284 284 284 286 287 288 288 290 291 287
298 298 298 298 299 298 299 298 299 301 298 293 292 290 290 296 299 297 293 288 289 293 291 289 291 292 292 293 293 291 290 291 291 294 290 291 291 293 294 293 292 288 290 294 295 295 296 296 294 293 291 290 290 290 292 291 291 293 294 291 286 287 287 283 284 279 274 277 280 279 275 277 288 287 288 289 289 288 287 288 288 288 289 289 289 289 284
298 298 298 298 298 299 299 298 298 300 300 295 294 289 290 291 294 294 294 292 288 290 288 290 294 294 294 293 292 292 293 293 294 291 291 291 287 291 294 293 292 292 295 295 296 294 288 285 287 287 287 288 288 289 288 288 287 289 289 291 289 287 287 280 274 275 275 275 280 274 276 285 284 281 281 284 289 288 287 285 287 286 286 288 288 290 291
298 298 298 298 298 298 299 298 298 300 300 297 292 291 292 291 293 293 292 290 289 291 292 291 292 291 292 292 292 291 292 289 288 292 289 290 290 290 291 293 294 295 297 297 294 292 287 286 283 285 282 285 283 284 285 284 282 286 289 288 289 290 287 284 276 272 277 274 278 276 278 280 284 285 282 285 283 282 284 281 285 288 289 288 289 290 290
298 297 297 298 298 298 299 298 298 299 300 298 293 291 291 290 290 290 290 294 289 291 293 288 290 291 292 290 289 288 289 288 290 285 285 286 289 288 290 293 296 297 298 295 287 286 284 283 280 280 279 281 277 278 283 279 283 282 280 280 283 288 286 283 283 272 273 275 269 270 273 275 281 286 283 288 286 289 288 285 285 288 290 291 290 289 289
298 297 297 298 298 298 298 298 298 299 300 299 293 291 291 292 291 290 291 290 291 287 289 291 295 293 291 289 291 289 287 288 288 285 286 283 285 289 290 293 296 297 295 291 287 287 285 284 281 281 279 281 281 279 273 278 278 282 282 283 284 282 282 283 285 276 270 270 273 272 274 279 283 282 286 288 288 289 286 281 281 288 288 289 290 289 289
297 297 297 297 298 298 298 298 298 299 300 299 292 292 290 292 289 290 292 288 289 286 286 286 290 293 290 289 291 290 290 289 289 287 284 285 286 287 289 291 291 294 294 291 287 287 284 282 283 281 277 281 281 277 278 275 276 278 280 281 281 283 278 280 275 270 277 277 273 275 272 280 281 283 283 287 287 290 288 273 280 286 288 289 288 289 288
297 297 297 297 298 298 298 298 298 298 299 300 294 289 290 293 292 289 290 289 283 282 285 285 288 291 290 289 290 289 289 287 286 287 286 282 282 286 288 290 290 290 294 290 287 286 284 282 282 281 281 280 282 284 278 280 279 279 280 282 276 277 275 278 280 280 277 281 271 267 275 282 280 282 286 285 291 290 280 276 286 286 288 287 290 289 289
296 296 297 297 297 298 297 297 297 297 298 299 294 291 290 292 293 291 292 287 288 283 285 288 288 288 286 286 287 286 287 291 291 288 286 285 284 288 289 290 291 288 286 288 289 286 284 280 278 279 280 276 278 281 280 280 281 281 283 279 274 274 278 271 276 278 279 279 279 277 277 282 284 281 286 288 288 276 280 288 284 286 284 285 288 288 287
296 296 297 297 297 297 297 297 297 297 298 299 295 289 291 293 294 292 290 284 285 283 285 285 287 285 287 289 289 288 286 288 289 290 288 286 287 289 291 287 287 287 286 287 286 282 285 282 284 275 279 283 281 283 279 278 277 282 280 285 283 281 281 278 279 276 271 268 275 269 273 284 287 286 284 286 287 287 285 283 283 285 287 286 286 287 286
295 296 296 296 297 297 296 297 297 297 297 298 295 290 289 293 293 295 294 292 287 285 284 289 289 288 288 285 286 288 289 292 291 291 287 290 291 292 284 285 289 289 287 289 285 284 283 284 280 277 279 284 281 279 281 280 276 280 282 285 283 285 282 275 280 282 280 279 276 279 285 284 289 289 287 288 285 285 287 289 287 283 284 287 287 286 286
295 295 296 296 297 297 297 296 296 296 297 297 295 291 288 290 292 294 294 293 287 283 285 289 290 288 289 291 291 291 288 287 287 290 292 290 288 286 286 289 287 282 285 283 282 276 277 277 274 275 279 277 277 282 281 278 276 278 275 279 279 284 285 286 282 285 283 282 284 283 282 287 291 291 289 292 291 284 285 291 289 287 283 283 286 287 285
295 295 296 296 296 297 296 296 296 296 296 296 292 288 285 287 289 293 293 288 289 289 289 288 289 290 291 291 292 291 290 290 291 288 290 294 286 284 285 291 288 283 282 284 289 285 280 279 275 277 275 275 282 274 273 272 277 276 282 283 280 285 284 281 283 282 280 281 282 283 279 282 288 284 283 292 292 284 284 287 288 286 286 285 288 286 285
294 295 295 296 296 297 296 296 296 296 296 295 292 287 287 289 288 291 292 290 287 285 286 287 284 281 284 285 289 291 291 291 291 292 290 293 290 282 284 286 288 285 283 284 286 288 283 281 281 278 283 280 278 278 282 275 275 277 279 279 281 283 282 284 281 280 285 283 286 284 284 285 285 287 284 283 288 287 283 284 286 287 285 286 286 286 284
294 295 295 296 295 296 296 296 295 295 295 294 292 291 291 288 289 287 289 287 286 288 280 282 282 287 288 290 291 289 291 292 294 292 292 288 292 293 289 288 286 288 288 287 283 288 285 285 281 281 285 283 286 282 281 284 276 279 283 281 279 283 282 286 279 281 285 287 283 283 283 285 288 287 286 288 287 286 284 284 282 282 283 284 284 282 282
294 294 295 295 295 296 296 296 295 295 294 293 290 287 286 286 289 290 289 289 287 286 282 277 281 289 289 289 286 289 292 292 292 292 291 291 290 292 290 288 288 287 285 284 287 289 285 283 278 277 285 283 286 280 279 280 282 281 286 285 286 284 286 282 282 283 282 282 279 280 283 285 285 285 283 283 286 288 287 285 283 282 283 282 280 282 282
294 294 294 295 295 296 296 295 295 295 294 292 288 287 287 287 290 288 284 283 287 283 281 278 282 285 286 285 289 290 291 292 292 292 292 292 292 293 293 292 290 287 288 286 284 284 283 281 285 283 282 283 282 277 278 280 283 282 280 282 284 285 285 283 283 282 283 286 285 283 282 279 285 284 287 288 287 286 287 284 284 283 284 283 284 281 278
293 293 294 294 295 295 295 295 295 295 293 292 289 287 287 287 288 290 290 285 284 283 281 281 281 283 288 286 288 289 290 291 292 291 291 291 291 292 292 291 290 288 288 290 286 284 281 286 282 279 279 281 286 279 278 279 280 278 277 283 286 288 286 284 285 285 285 287 284 288 288 285 288 291 290 290 286 286 286 286 287 286 285 283 284 284 282
293 293 294 294 294 295 295 296 296 295 294 291 284 285 286 289 289 290 291 289 289 286 284 284 285 281 278 283 288 286 289 290 290 290 290 290 290 289 290 290 288 286 285 286 286 283 283 282 282 282 281 283 282 277 277 276 276 280 283 283 284 282 285 289 290 289 288 286 287 288 288 287 284 285 287 287 284 286 287 286 286 285 284 282 282 282 284
292 293 293 293 294 294 295 296 296 296 292 284 284 281 280 284 289 289 291 290 285 285 284 280 276 278 283 283 283 285 285 288 289 289 288 288 288 288 287 288 287 287 287 285 286 284 282 282 280 281 281 283 280 279 279 272 273 281 280 283 287 282 283 286 284 288 287 282 284 286 285 281 278 279 280 283 282 286 286 285 284 282 280 281 282 279 279
292 292 293 293 293 294 295 295 295 294 292 285 281 277 276 275 283 290 292 290 287 284 281 281 277 279 278 283 282 282 283 285 285 286 286 287 287 287 287 287 286 286 285 283 283 283 282 278 278 280 281 286 282 280 278 276 275 273 280 283 285 286 284 284 279 280 280 280 279 279 279 279 280 282 282 280 280 280 280 278 279 280 280 280 280 281 279
291 292 292 293 293 294 294 294 294 293 288 286 283 280 280 282 287 291 293 290 287 284 281 279 276 275 277 280 281 283 283 284 284 285 285 286 285 286 287 287 285 287 287 283 282 281 279 281 280 281 280 285 281 271 271 273 278 277 279 281 282 281 280 280 280 280 280 283 286 285 284 283 282 285 285 281 278 279 282 280 279 280 279 278 277 276 276
291 292 292 293 294 293 293 293 293 292 287 291 293 293 292 294 294 293 290 287 284 278 279 278 275 276 274 274 281 283 284 284 284 284 283 286 282 285 284 285 284 285 289 286 280 279 282 280 281 280 281 281 279 275 272 278 277 278 279 279 278 279 279 279 279 280 282 278 280 285 284 285 283 278 279 279 279 280 281 280 277 279 280 281 280 279 278
291 292 292 293 293 292 292 292 292 291 289 284 281 284 287 293 292 293 290 284 281 279 279 275 272 271 271 278 277 281 284 280 280 282 280 284 283 283 281 284 284 283 284 283 283 283 281 281 279 279 280 278 277 275 276 276 276 278 278 278 278 279 280 280 279 279 277 277 277 279 281 281 279 279 279 280 278 278 279 278 279 280 278 279 277 277 276
291 291 292 293 292 292 292 290 282 282 278 280 281 283 289 293 292 291 287 283 277 276 275 276 276 271 271 272 272 278 282 281 277 280 280 282 284 281 283 280 282 279 281 286 281 280 280 279 282 282 279 280 277 276 275 276 279 278 279 279 278 279 281 282 278 277 277 278 279 279 279 281 282 281 280 279 279 279 279 277 278 280 280 277 277 276 275
291 292 292 291 291 290 284 286 283 281 280 280 281 289 293 293 291 285 285 284 281 275 274 272 274 270 272 270 271 277 283 278 279 278 279 281 280 282 279 280 278 279 283 280 279 281 279 284 283 279 282 279 277 276 275 280 279 278 279 279 279 279 280 281 279 278 278 279 280 280 280 280 281 280 279 278 278 277 278 278 276 278 278 278 277 276 274
291 290 291 288 282 281 277 277 282 280 281 285 289 292 291 289 282 284 284 283 283 281 276 272 272 271 272 272 275 276 280 274 279 276 277 277 277 279 278 278 277 282 278 278 278 278 281 285 281 278 278 278 279 280 280 279 279 280 280 280 279 279 280 280 280 281 280 279 279 279 279 279 278 278 278 278 277 275 278 279 278 278 277 279 276 274 274
290 288 278 276 276 273 273 275 276 283 290 290 288 282 278 279 274 275 276 275 277 281 276 275 271 270 270 274 272 280 278 272 276 275 276 279 277 274 278 278 278 280 272 276 277 284 280 279 278 278 277 280 279 278 280 280 280 281 281 280 279 281 281 281 281 283 282 280 279 279 279 279 278 277 279 276 277 278 279 279 278 278 279 278 277 276 275
283 274 272 271 273 272 273 276 285 289 286 285 279 273 271 269 268 267 269 271 273 273 274 273 270 268 271 273 274 282 279 275 271 273 274 279 277 273 277 274 279 277 272 274 276 284 276 276 276 276 276 278 280 281 280 280 281 281 282 283 284 283 283 283 284 285 284 283 283 282 283 283 282 280 279 280 279 279 279 279 278 278 278 277 277 276 276
274 273 269 270 273 276 283 285 287 283 282 274 269 267 266 268 270 267 270 267 268 271 272 270 270 270 274 274 275 273 282 276 271 270 272 275 281 274 276 272 274 275 270 270 273 280 276 274 275 275 273 277 280 280 280 281 280 279 279 279 280 280 281 281 280 281 282 281 282 281 281 282 283 283 282 281 281 280 279 278 277 277 277 276 276 276 275
277 273 274 273 275 276 275 277 275 272 270 265 264 265 265 267 266 267 269 264 265 265 268 270 268 270 273 274 276 272 278 278 274 275 275 272 278 277 272 270 278 270 268 269 274 275 274 272 272 272 274 279 280 279 280 280 279 277 276 277 278 279 279 278 277 277 280 281 279 278 276 275 275 276 278 279 280 278 277 275 273 273 273 274 273 273 272
281 277 274 275 279 278 276 274 269 268 266 266 264 262 261 262 262 259 262 264 265 266 269 270 270 270 271 274 272 274 273 274 275 275 273 271 279 272 271 269 269 269 268 272 274 270 273 269 270 268 269 273 275 276 279 277 276 274 271 270 272 275 277 276 274 272 274 276 275 273 272 270 270 270 271 273 273 272 271 270 269 268 268 268 268 268 267
286 282 279 269 268 266 266 265 265 265 263 261 262 261 261 260 261 264 263 264 262 263 267 270 271 279 277 274 273 272 275 280 277 270 268 269 277 271 266 264 267 266 269 270 271 272 269 268 267 268 271 274 271 272 272 272 272 270 269 268 269 271 271 270 269 269 269 269 270 270 268 267 265 264 266 269 268 265 264 264 264 264 265 265 265 264 263
279 274 267 262 267 267 268 263 270 266 263 260 260 260 260 259 262 259 260 262 261 265 269 273 272 273 270 273 274 274 271 275 276 267 266 267 269 267 267 262 265 270 270 266 268 268 269 270 270 273 272 271 269 266 266 266 268 271 269 266 265 267 268 269 269 268 266 266 266 266 266 265 264 263 261 261 262 264 263 262 261 262 263 263 263 262 261
268 263 259 263 263 268 267 262 266 262 261 262 266 256 258 260 262 258 264 265 266 268 271 269 270 272 269 269 269 269 276 268 274 268 265 267 266 266 265 266 265 261 264 267 264 263 264 265 269 269 269 267 263 262 262 262 263 266 267 264 262 261 262 263 263 263 262 262 261 262 262 263 262 261 259 259 258 258 258 258 258 259 261 261 261 260 260
263 262 260 261 263 261 256 259 260 259 264 263 256 254 255 257 261 262 262 259 261 266 269 268 268 270 267 266 271 269 262 264 267 265 264 261 265 265 266 264 264 261 260 259 260 264 264 268 270 267 262 261 260 259 259 259 259 262 263 261 259 258 258 259 259 259 260 260 259 259 259 259 259 260 259 258 257 257 256 256 257 257 259 259 259 258 258
266 263 255 256 259 259 259 259 260 261 262 261 259 257 260 260 258 262 259 258 260 262 263 263 268 268 269 267 266 265 262 259 264 264 264 259 260 263 267 264 262 260 261 258 256 257 261 265 265 260 257 257 256 257 256 256 256 256 257 257 256 256 256 256 256 256 256 257 258 257 256 256 256 258 258 257 256 255 255 255 255 256 256 257 257 257 257
260 261 259 258 256 257 258 259 259 260 258 258 258 257 258 258 260 260 260 259 260 263 266 268 269 266 267 266 268 266 261 258 265 265 263 265 267 259 260 257 254 256 254 256 257 260 263 263 258 256 255 255 254 254 254 253 253 253 253 253 254 254 254 253 254 253 254 254 255 255 255 254 254 254 255 255 255 254 253 253 254 254 254 255 255 256 255
265 264 262 258 254 253 257 259 263 264 262 258 257 259 258 262 258 258 260 260 260 264 264 265 264 266 264 264 264 267 266 265 261 261 263 260 261 261 261 255 257 258 259 259 261 262 261 256 253 253 253 253 253 252 252 252 252 251 251 251 252 253 253 252 252 252 252 252 253 253 253 253 254 254 254 254 254 254 253 253 254 253 253 253 253 254 254
263 261 257 253 255 256 255 254 260 259 260 260 258 257 254 255 256 258 259 259 259 261 267 271 272 271 264 265 262 261 260 258 259 264 262 258 258 256 256 251 253 260 262 258 258 257 253 250 251 250 251 251 251 250 250 250 251 250 250 250 250 251 251 252 251 251 250 251 251 251 251 252 252 253 252 252 252 252 252 253 253 252 252 252 252 252 252
261 259 255 254 254 255 254 256 257 256 258 258 255 256 257 255 255 256 259 257 258 260 262 262 265 261 263 263 263 261 262 266 263 256 262 264 259 252 254 257 258 258 258 253 252 250 250 249 248 247 248 248 250 249 249 249 249 249 249 249 249 250 250 251 251 251 250 250 250 251 250 250 250 251 251 252 252 250 251 253 252 251 251 251 250 249 250
261 258 257 255 252 251 250 252 253 253 254 254 255 257 257 255 257 258 259 257 262 268 262 257 260 261 262 261 261 260 263 262 259 262 261 256 256 258 251 252 258 254 253 252 251 249 247 246 247 247 246 247 248 247 247 247 247 247 247 247 248 248 248 249 249 249 249 249 249 248 249 249 249 249 252 253 251 252 251 251 252 251 250 250 249 248 248
Wind_Speed
14 15 16 17 19 21 23 25 24 23 23 11 9 7 13 18 15 11 29 29 33 24 18 16 18 18 10 8 10 8 10 13 15 18 13 10 0 3 8 11 10 4 8 8 8 9 5 15 15 9 5 7 4 7 18 17 16 9 3 6 4 5 5 7 2 2 4 4 1 0 2 1 1 1 3 5 6 5 5 2 5 5 1 0 1 5 8
14 16 16 18 20 23 23 25 26 25 23 12 9 15 13 14 14 19 23 34 28 25 24 25 20 10 13 16 10 4 10 18 16 16 17 10 9 11 6 8 12 14 13 17 19 18 8 10 11 2 2 5 4 16 17 25 14 15 13 17 12 7 3 10 4 4 3 6 2 2 1 0 1 3 2 3 5 5 3 5 2 1 6 7 4 15 10
16 16 18 20 22 25 25 25 28 27 28 22 14 13 9 9 7 11 17 25 25 25 17 16 17 9 20 20 16 12 4 12 24 23 19 9 10 11 9 13 14 8 14 15 14 18 9 9 6 3 4 4 1 15 18 24 17 9 6 7 6 3 5 11 10 12 12 8 7 14 15 11 3 1 6 7 12 10 7 5 3 7 8 11 6 15 7
16 18 19 21 24 25 26 27 29 31 31 32 17 14 12 16 14 11 16 18 18 13 16 16 19 14 17 19 13 15 11 9 15 17 18 9 11 4 6 4 9 6 13 12 9 12 1 15 6 7 6 5 2 9 17 18 11 9 16 14 10 3 2 5 9 15 17 21 10 7 15 6 8 9 12 11 7 11 7 3 5 16 8 9 18 21 4
17 18 20 22 25 25 26 29 31 34 35 31 16 14 10 8 12 18 17 15 19 20 18 16 16 15 16 16 13 18 16 13 9 14 10 3 5 3 7 8 12 9 16 11 11 12 5 5 17 10 11 0 2 8 15 14 14 21 14 16 7 4 4 11 10 11 13 1 2 7 18 17 17 12 10 8 10 9 10 11 18 5 9 11 12 2 10
18 19 21 23 25 26 27 30 35 36 30 21 13 13 12 16 7 14 14 15 18 21 19 14 14 11 17 11 16 21 19 17 15 9 2 7 6 9 1 13 15 22 23 19 15 12 5 10 15 12 8 8 4 6 5 12 14 19 10 16 11 10 11 12 10 13 5 2 7 9 11 12 9 12 12 12 12 11 14 18 21 7 11 20 5 8 12
18 20 22 24 26 26 27 31 34 33 26 17 13 12 3 2 5 8 21 15 18 15 13 16 16 19 16 6 17 22 24 22 16 15 8 7 6 11 11 18 19 22 20 17 9 14 11 9 8 14 13 18 16 10 3 7 7 15 10 12 2 8 9 9 12 11 4 3 3 6 11 3 4 9 11 12 12 17 21 22 20 14 16 19 9 4 4
19 20 22 24 25 25 27 30 31 26 27 13 15 8 9 12 20 15 12 6 23 27 23 20 18 19 18 9 15 16 21 22 17 12 17 18 16 15 16 21 23 24 21 19 18 23 24 26 22 20 27 15 16 17 16 11 2 1 7 6 3 6 2 7 3 4 0 2 3 2 4 7 6 5 9 12 15 19 22 19 14 9 14 18 7 9 15
19 21 22 25 26 26 27 27 28 22 18 9 9 3 1 8 9 13 18 17 17 21 18 17 19 15 15 9 13 12 19 21 20 13 14 23 20 19 24 24 21 20 22 23 24 28 30 25 28 19 20 21 13 11 4 11 16 7 5 3 0 4 2 2 6 6 2 1 4 4 5 4 3 4 8 15 19 18 14 10 7 6 18 11 5 12 19
19 20 22 25 26 25 26 25 25 22 16 3 4 10 4 5 2 15 17 14 18 17 14 15 16 17 16 12 16 14 21 17 20 13 9 9 16 25 27 24 20 18 22 24 28 27 17 5 4 16 10 7 11 9 12 15 15 10 8 1 7 5 6 6 5 7 4 2 4 8 5 4 2 9 17 23 15 10 5 11 13 18 16 9 14 23 2
19 20 22 24 25 25 26 24 24 20 8 2 3 6 10 18 17 13 11 15 19 21 18 16 20 9 15 17 19 16 22 22 20 20 9 8 7 5 11 16 17 15 25 21 6 16 14 12 11 10 10 10 7 13 18 21 20 19 15 4 3 7 8 4 5 7 3 0 7 3 7 6 13 20 16 13 15 15 13 14 18 17 10 15 16 16 6
19 21 22 24 24 25 25 24 24 22 11 4 4 3 1 6 16 11 14 18 15 20 21 19 21 14 22 17 18 19 21 25 22 19 19 14 9 13 18 19 15 13 3 15 19 19 19 18 18 16 14 12 9 7 16 21 13 9 16 19 14 16 12 7 5 6 6 6 6 7 10 12 22 2 7 15 16 17 24 25 19 17 18 18 13 11 4
19 22 23 24 25 25 25 24 25 22 18 8 3 6 3 4 8 11 13 16 17 18 18 19 23 19 19 18 17 20 22 22 18 8 6 12 4 8 13 17 20 9 12 17 20 17 12 12 12 11 10 11 10 12 10 8 4 5 5 6 16 15 14 6 3 5 5 4 9 9 16 11 3 2 2 3 13 19 14 14 12 8 7 12 17 20 15
19 20 22 24 25 25 25 25 25 24 23 13 7 5 6 7 6 8 9 13 14 16 17 14 17 15 19 19 17 12 14 9 5 8 7 2 11 10 4 5 8 16 15 17 18 18 8 5 8 8 2 5 5 5 1 2 5 4 9 7 7 18 11 9 5 0 10 6 11 10 5 7 8 9 6 11 9 6 11 11 16 15 15 17 20 19 14
19 20 22 23 24 25 25 25 26 25 24 18 6 6 8 8 5 5 1 10 14 13 18 20 20 18 18 9 8 12 14 11 14 2 1 1 4 0 3 9 15 16 17 16 5 4 6 5 5 7 3 9 8 7 1 4 1 3 3 3 1 7 15 7 12 3 6 8 1 1 4 9 17 9 3 6 6 10 9 6 12 6 14 15 15 15 15
18 20 21 23 24 25 25 25 25 24 24 18 7 5 6 8 3 2 5 6 15 14 12 6 17 20 20 14 19 19 14 14 11 5 5 2 2 4 1 9 14 16 8 5 4 7 5 10 8 11 10 11 4 6 3 1 0 2 5 3 6 4 2 6 13 6 5 3 8 8 11 16 9 6 11 9 10 14 9 4 11 11 14 13 17 16 13
18 19 21 22 24 25 26 26 26 24 22 19 6 5 5 8 7 3 6 5 4 5 4 2 5 8 9 8 13 13 13 15 13 13 9 6 5 5 6 3 1 6 14 7 4 6 6 5 6 6 1 6 9 6 5 4 5 2 2 4 5 8 6 7 4 4 8 9 6 9 4 9 6 9 6 13 12 14 9 2 13 7 13 12 12 14 13
18 20 21 23 24 25 26 26 27 25 23 21 7 3 4 7 5 3 4 8 8 3 3 6 3 15 13 9 11 2 6 6 5 7 7 2 4 6 7 5 7 5 4 12 5 8 10 7 13 10 12 3 3 9 13 11 11 12 12 12 5 4 0 5 13 10 7 9 4 2 7 8 5 7 9 10 14 13 9 14 15 7 11 10 12 13 13
18 19 21 21 23 24 25 26 26 26 24 22 6 3 5 8 7 2 5 5 6 7 4 3 5 3 1 4 3 4 2 8 10 12 9 6 2 5 8 1 4 7 3 8 10 8 10 4 1 4 6 1 1 11 5 11 14 8 16 10 4 6 9 2 6 13 14 11 11 9 5 8 11 2 13 15 8 5 19 10 5 12 4 5 10 11 8
18 19 20 22 22 23 25 25 27 26 25 23 10 5 2 7 7 2 2 10 5 8 2 4 3 3 3 4 10 9 5 2 1 11 14 13 6 12 12 7 3 5 4 4 10 1 8 10 10 2 7 11 8 5 5 5 1 13 8 16 16 14 10 9 10 2 6 4 4 1 7 10 17 14 1 7 13 13 5 5 2 2 9 10 6 7 6
18 19 20 21 21 23 24 26 27 27 25 25 12 3 6 8 11 7 4 13 11 12 3 4 5 8 4 7 7 2 4 16 14 15 5 11 13 13 15 15 15 9 11 11 14 11 7 12 8 4 3 7 6 3 12 10 2 6 5 14 9 9 11 6 8 10 15 13 11 11 10 6 17 23 15 12 5 3 10 7 6 1 4 8 7 6 8
18 18 19 20 21 22 23 25 27 26 25 23 17 5 8 8 7 7 9 11 11 7 6 3 3 8 8 7 5 3 4 4 6 3 14 13 1 1 1 8 9 2 2 4 6 3 2 3 3 4 6 4 1 8 6 10 8 4 2 3 6 11 13 10 16 10 9 11 11 1 3 11 14 10 5 12 8 3 4 10 8 8 5 4 6 10 8
18 19 19 20 20 21 22 24 26 26 24 23 15 8 6 6 8 10 1 18 9 9 4 4 1 3 1 2 4 4 1 0 3 5 3 20 4 2 2 13 7 2 1 1 9 7 6 7 4 4 4 0 10 4 3 3 5 4 9 5 1 0 4 2 6 3 1 2 2 0 1 3 9 3 1 10 10 3 1 5 7 4 7 11 9 7 9
18 18 19 20 20 20 21 23 25 25 24 22 14 8 6 5 6 6 10 8 8 8 4 8 6 6 5 6 9 9 6 4 4 5 5 3 15 2 3 3 2 2 0 3 5 10 7 4 5 3 6 6 6 5 12 5 5 5 4 1 2 2 2 2 3 1 7 10 8 6 2 0 6 6 1 2 2 7 4 3 5 6 8 11 5 4 6
17 18 19 20 20 20 20 21 23 24 24 24 14 7 4 6 9 9 2 12 2 10 6 1 7 3 5 5 6 4 3 5 6 3 2 2 3 12 9 6 4 8 11 8 2 9 3 7 1 2 8 6 8 7 2 8 3 6 9 6 4 4 4 5 1 6 12 13 3 5 6 8 9 9 6 5 6 3 5 2 1 0 1 2 4 4 5
16 17 18 19 19 19 20 19 19 20 21 22 17 10 7 6 10 7 3 8 6 4 10 5 3 5 5 3 6 5 9 7 5 2 3 1 0 2 15 8 4 4 7 3 4 9 6 5 4 1 8 3 2 3 5 4 5 4 10 12 7 5 9 8 9 8 3 2 1 0 3 2 6 6 5 3 4 8 8 6 2 1 4 2 2 1 5
16 17 17 18 19 20 19 18 17 15 15 14 10 9 8 6 9 10 5 3 6 7 5 6 2 3 3 10 5 5 6 8 4 7 9 7 7 7 7 10 13 5 7 5 4 6 4 4 5 5 3 3 5 3 3 3 5 7 5 2 3 8 12 5 7 7 9 15 12 12 9 4 7 5 10 11 11 8 7 4 3 3 4 5 6 2 2
15 16 17 18 18 19 19 18 16 13 11 10 5 5 6 9 9 11 3 4 1 6 11 8 7 6 4 8 9 7 9 8 4 9 11 9 9 7 10 9 8 8 5 9 3 3 3 8 5 0 3 1 8 1 1 0 4 2 1 9 11 14 13 11 12 13 14 9 6 12 8 6 10 16 16 14 6 7 7 10 11 11 5 4 5 4 2
14 15 16 17 17 19 19 19 17 13 9 5 4 5 3 6 9 12 14 12 2 10 10 8 5 6 4 2 5 9 10 10 9 10 11 11 11 9 8 7 7 5 4 5 6 5 5 3 2 5 3 3 7 3 3 3 4 7 8 5 5 2 7 16 16 13 6 5 15 14 10 10 5 6 8 8 6 9 9 7 4 4 5 4 4 3 5
13 14 15 16 16 17 20 20 19 15 7 5 4 4 5 5 7 12 15 11 6 1 8 8 7 0 2 5 6 6 8 10 8 14 15 12 10 8 6 6 7 4 5 3 4 6 1 5 1 1 3 3 4 4 4 3 3 8 2 4 10 2 3 4 1 9 7 2 6 6 5 4 1 1 1 2 4 7 7 6 5 4 3 4 5 3 2
13 13 14 14 15 15 17 19 19 19 12 5 3 5 5 5 6 10 17 12 7 3 5 6 8 2 3 0 1 8 9 7 7 9 10 7 7 5 2 2 4 2 5 3 5 3 4 3 3 1 1 2 2 5 7 5 3 3 5 6 9 8 6 5 2 3 7 6 5 5 6 5 3 4 3 1 3 4 4 3 3 5 6 6 5 5 4
11 11 13 13 14 15 16 15 16 13 11 11 9 4 2 1 6 12 11 8 5 4 5 9 5 3 2 2 2 1 4 4 1 2 4 5 6 6 9 8 4 5 5 6 3 4 3 0 4 1 3 1 6 4 4 4 5 6 0 3 1 1 3 4 3 3 4 7 11 9 3 1 2 6 6 5 3 2 6 7 5 7 7 8 6 6 6
10 11 11 12 13 15 15 14 13 9 4 5 10 9 6 13 15 11 5 4 5 3 1 5 7 2 3 2 1 5 5 2 5 3 5 6 4 4 5 4 3 5 5 6 5 4 0 2 0 4 0 1 4 2 3 5 5 1 1 0 2 3 4 3 4 3 5 2 2 7 8 9 6 2 4 6 5 7 8 9 6 7 9 9 9 7 7
7 8 9 10 11 14 16 14 12 9 9 6 5 7 8 17 13 16 7 4 3 1 3 4 5 5 2 2 4 2 4 3 3 3 4 4 2 3 1 3 3 4 7 5 1 5 1 2 4 2 2 3 1 4 2 4 1 1 1 3 3 5 5 6 4 4 2 3 3 2 3 7 9 8 8 8 8 5 6 8 8 10 7 8 6 6 5
7 8 7 10 12 11 11 11 9 8 3 2 1 3 8 21 15 9 7 1 2 3 3 3 2 6 5 4 3 2 1 3 5 4 4 1 3 3 2 5 5 5 3 3 5 1 3 1 3 5 4 0 4 1 3 2 1 1 2 4 2 5 6 7 2 3 3 4 6 8 9 11 13 9 8 7 9 7 9 5 5 11 9 5 5 4 3
7 6 8 11 10 8 3 7 7 6 5 3 4 10 21 20 10 5 4 4 4 3 4 1 3 3 2 6 4 1 1 3 1 2 2 2 4 3 3 2 6 2 0 4 2 3 2 3 3 2 0 4 3 1 3 6 6 4 3 4 4 3 1 4 8 5 6 6 8 8 9 7 11 10 8 7 7 5 6 7 5 6 8 6 5 2 3
10 11 10 9 7 6 5 2 2 3 1 7 12 20 17 11 2 2 6 5 4 3 4 3 6 4 2 4 2 3 1 3 2 5 5 5 3 1 4 4 5 2 4 4 4 3 1 1 4 3 2 4 0 2 2 3 5 6 4 4 4 4 9 8 6 11 12 10 11 8 8 11 8 6 8 7 5 5 7 7 6 7 6 6 5 3 1
8 11 7 6 6 5 3 3 2 8 15 16 12 4 8 8 3 4 5 6 4 4 5 5 5 1 2 3 5 2 3 1 2 3 2 1 2 3 1 4 0 3 4 1 1 1 2 4 2 4 1 1 1 1 1 2 3 4 6 6 5 6 7 6 5 10 14 11 9 7 7 8 7 4 8 6 5 5 4 4 4 5 6 6 5 5 6
7 3 5 4 3 1 0 4 8 18 11 2 4 2 3 2 4 4 3 2 3 5 4 5 3 2 4 6 3 3 3 3 4 3 4 3 3 2 2 4 1 4 1 3 3 1 1 2 2 3 3 2 3 1 1 4 6 6 6 6 6 5 5 7 6 7 7 7 7 4 5 7 7 3 3 5 2 4 5 5 6 5 6 6 5 5 6
6 6 2 2 3 2 4 7 11 6 2 2 3 4 2 3 4 1 2 3 2 2 3 5 1 2 3 5 5 4 5 4 3 3 2 2 2 3 0 3 2 4 1 2 2 3 4 3 1 2 0 1 3 1 3 4 7 7 7 6 7 7 8 9 8 6 9 7 7 7 6 7 5 5 5 4 5 6 5 6 5 5 5 5 4 6 4
3 1 2 1 2 2 3 5 4 4 3 2 3 3 2 3 2 1 1 2 3 1 0 1 3 6 5 5 5 5 4 4 2 2 3 3 1 4 5 2 1 5 1 2 2 4 1 4 2 3 2 3 5 3 4 7 7 8 8 8 7 7 8 9 10 8 6 8 8 8 8 8 9 8 6 6 7 6 6 7 7 7 7 7 8 5 3
2 1 3 1 1 1 3 3 3 1 2 1 3 2 0 2 1 4 1 3 1 1 4 2 3 3 4 3 1 2 2 0 1 2 2 4 3 3 1 2 3 3 1 2 2 2 2 3 2 1 2 2 1 5 6 7 6 6 8 10 9 8 7 9 9 10 9 8 7 7 7 9 10 10 8 8 9 8 8 8 8 9 9 6 4 4 5
6 5 3 3 2 2 1 2 3 2 2 3 3 2 2 2 0 1 1 1 2 2 1 1 1 0 1 2 3 2 2 1 1 2 5 1 1 4 4 2 2 3 1 2 3 1 3 1 2 2 1 1 5 6 7 5 4 7 7 6 7 8 8 11 13 10 10 11 10 8 6 8 9 7 7 8 8 10 8 8 6 4 3 4 5 5 6
2 3 2 2 1 2 2 1 1 3 2 1 2 2 0 2 2 3 2 0 0 1 2 4 2 2 2 4 2 2 3 3 3 3 3 1 3 1 2 2 2 3 4 3 1 3 2 1 2 1 0 3 7 8 8 8 7 5 9 10 11 12 9 9 9 13 12 8 10 8 8 9 8 7 8 10 10 8 7 7 5 5 3 4 6 6 5
1 3 3 2 2 3 2 2 2 2 2 1 2 1 2 4 3 1 3 2 2 1 1 2 3 6 4 2 2 2 2 1 2 4 0 1 4 2 3 1 0 3 3 1 1 1 3 1 2 3 7 7 8 8 9 8 8 7 3 6 11 12 12 13 10 7 7 8 7 8 11 7 7 8 9 8 8 7 8 8 6 7 6 6 5 6 6
4 1 1 3 2 3 2 1 2 1 1 1 0 4 3 3 3 2 1 2 1 4 5 2 4 5 4 2 3 1 2 2 4 1 0 2 3 1 1 0 3 4 2 4 2 3 2 2 3 4 5 6 7 8 8 8 9 7 10 10 7 9 9 9 9 9 8 7 6 7 7 7 7 7 8 7 6 6 7 6 6 7 5 6 8 7 6
2 2 3 1 2 1 1 1 0 0 1 0 0 2 0 0 1 1 0 2 1 3 4 2 2 1 5 0 2 2 3 2 3 2 3 3 1 1 3 4 0 0 3 1 1 1 2 2 2 4 5 7 7 7 8 9 10 10 9 7 7 8 8 8 8 10 7 7 7 7 7 7 8 6 6 7 8 7 7 6 7 8 8 7 5 4 5
1 1 2 2 2 0 3 0 0 1 2 1 2 1 3 2 2 4 5 3 5 3 1 2 5 1 5 3 4 2 0 1 3 2 1 2 2 5 1 3 1 1 1 3 3 5 3 1 3 5 6 6 5 5 6 7 9 10 9 8 8 9 8 8 8 8 8 8 7 6 5 7 7 8 9 7 6 6 8 8 6 6 7 6 5 6 6
1 2 2 2 1 2 0 1 2 4 4 4 3 5 6 6 3 4 6 5 4 2 2 1 2 3 1 2 3 1 1 2 4 2 2 4 3 2 2 2 0 1 4 3 2 2 1 3 4 5 5 5 4 4 3 3 4 7 8 8 8 7 6 7 6 5 5 7 5 6 7 6 6 5 5 5 7 5 5 6 7 7 6 6 6 6 6
4 3 6 5 3 1 2 1 4 4 4 5 6 6 4 4 5 4 4 6 4 4 2 2 0 4 1 2 1 1 0 2 2 1 5 1 1 0 5 2 3 4 1 1 2 0 2 3 4 4 4 4 5 5 5 5 5 4 5 5 5 5 6 6 6 6 7 5 6 5 4 5 6 4 5 4 1 0 2 7 8 9 8 6 6 7 7
2 5 3 0 1 2 4 3 0 1 3 4 4 4 4 2 3 4 6 4 6 3 5 2 0 2 2 3 1 2 2 2 5 1 4 2 1 3 2 2 1 2 2 0 0 1 1 1 1 2 4 4 6 6 6 6 6 5 4 5 5 5 5 6 6 6 6 5 5 6 7 5 3 2 3 1 1 2 3 5 7 7 6 5 5 5 5
3 4 2 1 3 3 1 0 4 5 2 0 2 2 3 3 5 5 6 4 3 5 2 1 2 2 2 1 2 2 1 5 1 1 4 2 1 3 2 1 0 1 1 0 1 1 1 0 0 1 2 4 4 5 5 5 4 6 6 6 6 6 6 6 6 6 5 5 6 6 5 4 4 2 1 4 4 5 7 6 5 5 5 3 4 3 3
Wind_Direction
304 300 299 295 295 294 292 288 286 283 282 270 237 232 233 227 232 134 158 153 157 164 185 179 194 200 187 133 177 159 157 169 176 170 183 171 133 112 170 171 139 180 149 152 140 156 153 174 195 181 187 194 172 172 146 145 160 140 81 94 204 107 104 93 339 324 308 315 286 33 356 60 115 316 75 138 179 165 162 158 184 175 220 358 325 263 267
304 300 299 298 296 296 293 290 289 285 279 260 255 240 230 203 178 160 161 157 160 169 186 181 192 178 177 185 175 166 165 164 170 176 181 168 171 163 157 162 184 161 164 158 170 170 142 215 176 142 185 172 193 153 151 153 168 170 188 172 194 144 251 121 106 48 350 341 341 333 5 45 211 158 183 141 113 95 141 103 131 238 217 168 175 251 264
301 305 300 302 300 299 297 293 295 287 280 263 244 238 207 162 147 140 158 163 169 181 177 172 176 187 177 177 178 147 175 187 170 170 179 182 171 153 181 177 163 163 160 173 166 179 172 152 215 74 146 158 76 166 163 168 171 187 139 110 149 99 186 139 152 156 166 187 200 210 207 191 192 187 154 183 160 145 129 185 176 225 231 162 191 250 240
308 308 307 303 307 305 306 303 299 289 278 264 243 228 194 180 169 149 142 167 169 185 186 184 173 166 172 174 179 165 147 171 197 172 173 170 160 142 123 110 127 132 157 157 163 180 174 153 174 149 161 150 207 183 173 173 174 148 133 143 149 140 118 185 181 180 183 198 194 52 85 80 181 207 173 187 181 172 166 126 150 221 214 178 220 230 236
312 312 310 309 312 311 309 307 299 288 277 258 237 211 198 151 172 159 158 142 172 183 187 180 167 179 166 170 166 177 162 155 178 185 161 237 130 95 134 144 144 168 155 164 171 181 145 152 146 169 153 40 121 168 177 175 162 145 143 156 121 111 164 206 198 210 222 92 120 179 148 175 198 162 187 171 166 173 169 182 222 172 71 248 239 162 242
317 317 316 315 317 314 311 308 298 291 281 256 218 195 190 180 175 156 162 150 163 171 191 186 171 149 182 170 164 166 166 172 160 167 228 142 158 125 17 170 174 167 175 163 169 170 157 156 171 159 158 117 112 133 224 172 185 160 165 169 167 172 198 210 187 223 189 57 143 150 163 186 184 172 171 173 178 171 189 215 223 149 205 242 199 177 231
320 322 320 320 319 318 314 308 302 299 300 281 201 189 272 86 111 139 153 158 159 182 138 163 173 165 186 170 179 170 164 167 169 160 141 152 177 164 156 184 177 178 174 167 165 165 146 211 178 164 169 167 152 160 148 275 203 176 163 180 169 149 220 191 184 203 98 23 138 166 155 137 114 170 182 184 165 195 204 217 221 204 229 241 218 228 253
324 324 324 322 322 322 318 315 311 314 314 272 193 214 155 167 159 164 154 62 160 164 166 174 169 178 187 169 192 171 168 163 163 166 163 167 185 174 178 181 179 177 174 179 177 183 190 181 183 190 165 168 164 170 174 149 71 144 163 164 305 152 264 79 98 94 68 20 83 48 125 151 170 200 185 185 197 207 213 218 224 223 257 253 284 303 274
325 327 327 324 325 327 325 326 328 329 322 181 171 226 199 135 126 139 153 154 169 169 163 163 172 171 188 187 172 173 172 167 165 168 184 177 173 180 190 177 177 180 180 186 192 192 197 183 183 171 162 167 189 145 233 147 151 151 136 148 88 87 170 43 106 151 251 323 98 90 78 63 132 202 207 205 205 212 220 222 212 189 232 237 269 266 254
327 330 331 328 330 334 332 335 337 342 325 150 201 157 196 62 38 151 152 159 166 168 164 164 154 189 183 172 171 171 177 168 165 164 211 215 194 189 187 171 163 180 186 199 204 199 190 157 111 153 155 95 90 91 128 142 149 149 156 115 140 141 133 134 134 146 222 325 145 106 96 77 278 242 218 209 204 203 217 231 221 214 219 219 220 241 136
329 333 331 330 335 340 340 343 341 1 350 161 229 172 157 151 154 161 154 147 166 173 163 178 185 161 163 183 173 176 173 175 175 166 183 177 212 145 120 150 170 177 195 200 160 94 97 94 91 75 88 113 113 137 145 151 160 163 155 131 133 129 135 151 153 173 159 266 127 113 78 202 223 225 212 171 184 195 203 223 219 219 189 221 220 240 221
334 335 333 333 339 341 346 348 346 6 1 285 241 119 45 129 141 151 163 155 162 169 172 174 179 170 182 177 181 177 174 178 184 184 168 182 178 158 154 168 167 191 153 104 109 102 88 76 72 61 56 63 72 104 145 159 172 166 164 161 169 174 176 164 165 147 165 176 119 109 205 226 234 189 148 179 189 184 203 221 216 214 214 230 246 252 173
340 337 337 337 343 347 350 351 350 2 13 342 16 90 33 11 129 147 151 152 159 171 176 178 180 172 177 178 180 181 177 181 181 155 123 142 139 170 171 168 181 164 142 117 106 90 84 92 71 91 77 68 63 72 82 115 130 143 191 182 161 174 170 149 56 110 56 126 160 185 217 233 320 325 291 202 184 203 204 239 245 241 224 220 236 238 229
343 341 339 340 347 351 354 356 352 0 18 17 32 44 32 29 106 121 143 147 158 165 172 165 182 177 177 181 174 166 159 146 113 127 131 123 148 163 148 155 141 132 139 112 98 109 92 73 104 93 50 53 64 100 303 354 359 187 185 198 209 176 146 149 151 174 160 186 187 215 352 334 270 254 212 173 172 153 168 217 249 216 208 203 222 231 233
345 345 344 344 350 353 357 1 356 1 12 19 44 36 40 38 43 121 102 117 150 166 173 180 173 170 165 169 135 137 150 153 146 109 352 13 87 203 165 139 146 144 136 120 106 62 146 116 106 118 140 140 156 186 45 177 273 39 342 311 118 166 164 178 145 233 131 129 144 343 267 254 242 231 82 147 153 155 168 165 265 212 211 209 218 227 220
349 347 349 348 352 357 359 3 1 4 12 12 38 38 59 36 5 50 106 131 137 160 188 159 163 162 167 168 162 159 159 163 157 121 107 39 84 91 5 155 153 143 115 88 107 116 128 139 150 147 169 179 163 112 232 135 6 326 15 59 103 34 71 162 164 154 75 116 166 194 200 231 233 162 172 166 151 140 123 101 264 239 190 204 201 221 218
353 353 353 352 357 0 2 4 5 5 17 19 17 23 54 17 38 16 100 74 104 105 37 42 118 123 116 143 160 166 170 164 155 153 149 149 150 132 134 144 346 137 136 107 133 116 121 101 153 143 51 160 157 179 107 141 136 116 358 39 116 134 150 118 79 149 189 173 171 209 207 236 233 189 184 172 143 122 116 92 254 245 157 192 182 206 206
358 355 358 358 360 3 3 4 7 7 15 18 31 39 20 4 34 13 67 115 107 53 8 348 169 153 168 171 154 150 111 99 51 54 96 179 130 142 151 155 131 319 156 145 150 142 152 146 165 178 175 233 145 133 180 163 175 175 179 172 144 143 25 193 186 184 192 179 235 333 286 259 218 201 171 154 147 124 137 208 234 161 171 178 176 196 202
360 1 2 1 2 6 6 5 9 10 12 16 16 70 20 5 356 21 138 72 103 139 307 359 355 53 41 3 106 144 178 156 144 124 130 111 248 166 130 141 120 156 352 138 148 158 159 185 27 142 139 269 206 194 129 172 185 173 156 129 142 187 163 296 151 187 188 195 193 221 247 241 178 240 163 162 110 181 208 220 142 145 165 181 168 188 197
5 6 4 5 6 8 9 7 10 13 12 15 22 86 302 354 348 345 159 109 59 98 61 8 9 91 337 130 149 140 109 26 256 134 160 151 174 135 111 142 298 88 99 116 161 185 153 181 179 142 169 171 207 148 152 209 31 159 169 183 177 173 164 181 189 161 37 54 198 41 251 246 142 115 49 284 183 216 168 122 0 133 156 152 195 178 187
7 8 9 9 10 11 13 13 13 16 15 12 19 62 34 357 355 18 352 126 118 104 34 357 49 56 72 62 43 26 177 173 169 161 181 135 172 158 164 170 177 166 175 165 169 185 166 180 170 176 202 156 192 101 183 174 202 304 156 182 185 177 167 178 207 185 182 181 185 205 221 64 144 144 179 205 199 185 145 123 149 285 155 162 160 214 177
9 10 12 13 12 16 16 18 17 20 17 12 14 38 65 342 342 22 51 57 76 67 115 170 122 100 83 71 61 76 101 14 303 307 139 137 187 143 200 135 156 102 176 107 64 35 3 133 71 123 157 168 164 194 166 143 175 196 353 106 169 215 198 179 185 189 179 199 203 108 221 162 180 166 164 170 194 169 192 138 153 164 239 205 156 194 198
11 10 11 15 18 19 21 21 22 22 23 19 20 59 58 350 348 325 114 80 64 75 47 22 300 98 92 89 112 96 174 237 335 352 296 142 173 342 136 143 185 189 78 99 166 144 159 112 171 154 62 353 160 103 20 119 157 165 173 243 118 272 181 115 95 271 316 308 198 199 89 192 206 33 314 171 191 198 280 154 154 215 170 170 177 197 179
11 11 12 16 17 19 24 26 26 25 26 27 29 28 23 16 357 337 73 79 121 119 50 23 48 13 3 343 329 343 5 19 25 293 303 260 145 290 318 303 136 78 52 226 177 137 176 118 175 145 151 204 108 140 160 206 211 182 112 84 223 264 128 97 159 244 157 242 207 158 194 238 218 224 337 300 206 193 177 178 183 183 169 191 221 148 162
12 12 15 14 17 21 22 29 29 30 29 23 19 31 49 26 4 344 121 127 201 128 125 30 25 338 299 265 275 301 345 340 300 321 284 319 215 163 181 199 163 152 172 169 178 89 66 116 147 153 156 225 145 200 281 147 248 173 165 212 122 250 196 149 184 153 175 229 159 172 200 191 202 196 202 185 208 199 216 202 113 116 183 178 172 121 115
13 14 15 15 17 19 20 20 28 31 29 27 32 40 32 14 340 356 14 61 73 68 115 108 352 328 302 331 16 326 303 319 325 8 57 1 221 166 133 122 50 33 93 101 111 123 127 86 105 153 143 230 123 156 185 220 146 186 192 189 192 151 127 199 175 174 249 7 264 196 79 252 234 241 257 250 203 196 216 203 117 105 140 150 113 170 160
14 15 15 17 15 17 12 14 19 27 25 22 23 29 35 19 18 29 36 311 118 63 19 99 153 283 359 50 353 337 334 341 341 70 58 41 67 92 93 111 120 96 102 67 39 113 80 113 134 171 147 174 124 143 141 94 141 147 207 235 127 112 187 176 126 183 202 210 204 142 136 223 247 241 220 229 221 198 204 140 209 216 199 180 155 123 68
14 14 17 17 18 15 13 10 8 13 9 5 8 7 4 35 11 8 10 86 305 137 147 129 134 182 213 44 355 342 351 359 14 69 78 53 43 50 100 110 104 106 115 123 110 59 91 140 160 138 95 137 101 92 73 137 70 43 236 202 193 179 179 152 181 188 216 211 129 180 170 173 191 193 206 213 184 158 173 194 208 217 202 160 150 139 101
10 14 15 20 20 20 19 15 10 5 2 14 15 352 333 39 18 8 5 359 22 96 89 93 86 49 92 235 332 354 351 5 31 64 72 63 55 48 57 73 85 110 70 60 92 85 85 84 78 129 143 197 95 157 101 164 183 210 225 188 182 254 171 174 187 191 228 154 173 177 167 187 212 215 203 198 173 168 194 212 219 211 173 156 150 156 150
10 13 19 20 22 27 26 23 17 15 35 53 38 16 27 341 9 12 351 355 354 342 109 127 93 194 351 16 349 344 344 351 22 57 56 54 52 46 26 61 61 37 90 124 145 108 149 107 38 314 301 355 113 157 136 177 161 238 289 183 184 94 196 195 101 169 205 197 177 176 154 96 17 64 358 175 168 173 180 195 180 137 120 145 132 112 144
8 12 16 20 23 23 25 27 24 23 33 58 57 39 28 22 326 353 337 339 334 60 89 61 98 125 59 45 39 348 338 337 11 40 45 38 55 39 338 59 64 66 84 27 43 129 118 63 106 349 299 28 108 130 165 147 218 304 252 196 186 179 179 174 66 88 120 114 96 88 81 97 132 89 55 95 142 143 118 88 87 122 134 111 111 120 113
3 13 17 21 19 17 18 23 29 22 43 45 47 61 68 329 279 309 316 319 341 40 72 110 68 21 115 15 318 274 307 308 356 21 36 356 28 1 34 44 71 8 85 102 139 73 53 126 91 114 98 33 74 96 78 113 193 238 256 166 246 77 92 120 104 92 92 137 115 70 59 82 218 157 200 168 151 100 123 120 119 113 104 99 89 76 82
9 15 20 18 16 20 21 25 31 36 28 62 72 61 16 349 343 346 328 329 44 45 47 71 101 137 72 234 318 349 338 341 21 20 49 5 33 353 34 357 18 42 3 70 17 100 244 86 169 58 259 69 93 112 111 196 221 266 315 2 54 101 85 75 88 104 124 23 38 150 190 196 184 132 104 114 114 120 120 116 122 118 109 101 91 87 76
5 24 20 16 24 27 23 24 27 30 32 27 18 351 338 342 346 347 356 89 96 107 60 91 102 93 150 325 65 317 37 53 44 357 73 5 295 40 53 45 352 72 349 80 176 78 352 76 77 167 13 14 63 86 244 258 252 275 45 52 85 97 110 88 68 66 0 355 32 58 105 104 101 110 94 97 92 78 100 115 122 101 98 99 103 108 138
40 35 22 7 5 2 23 34 25 36 43 2 333 262 320 336 337 333 356 107 71 358 45 42 89 108 84 17 57 304 290 29 40 334 100 10 2 68 353 68 338 69 304 85 45 99 100 212 196 78 189 194 58 204 235 189 185 145 116 98 102 118 105 92 36 13 39 71 85 89 106 118 110 103 113 111 113 125 110 87 101 113 103 107 116 113 113
49 8 0 359 352 354 0 31 29 8 31 357 294 310 318 316 319 324 351 34 97 133 81 115 71 65 114 122 138 259 356 50 4 43 23 143 27 24 58 112 69 330 314 50 117 24 91 281 70 139 350 105 216 189 224 173 165 173 169 148 161 123 127 150 131 101 81 78 88 92 85 78 101 114 108 108 107 100 108 99 71 89 114 120 130 128 74
17 356 360 16 13 34 28 4 350 57 262 292 301 306 309 323 319 4 8 25 9 65 104 131 68 32 75 153 96 296 66 64 347 42 13 53 106 342 30 48 100 135 53 29 36 90 266 20 94 96 77 155 186 355 13 122 157 160 163 137 113 100 100 101 120 109 89 73 70 67 82 97 89 91 99 98 108 120 109 117 129 124 133 147 150 115 114
356 29 39 12 27 34 350 356 306 305 316 312 325 352 3 25 32 348 4 16 318 36 9 55 67 291 321 80 76 285 80 359 9 97 43 303 56 340 307 82 198 75 81 136 251 181 60 40 53 112 18 292 271 41 353 40 98 110 106 112 115 115 111 115 114 103 103 91 73 78 76 76 91 107 114 128 148 129 97 94 84 66 78 85 100 111 88
49 44 45 22 72 3 282 264 312 321 311 312 29 66 360 10 41 22 325 318 14 13 326 65 17 5 62 67 47 349 102 146 60 26 84 347 88 355 27 80 333 78 335 47 301 95 63 14 35 68 112 307 48 28 7 75 71 68 87 93 103 100 92 67 57 81 91 103 127 128 120 124 125 153 143 145 135 74 86 85 77 79 95 104 106 106 101
25 41 33 24 18 283 275 278 321 331 343 40 341 87 50 344 58 358 330 33 359 343 16 31 297 59 16 92 98 40 348 50 75 65 139 45 350 120 253 80 277 84 65 105 240 33 119 129 235 88 354 211 129 53 44 57 70 42 43 46 60 65 71 77 63 57 84 75 77 71 56 65 75 108 150 144 118 104 87 77 73 73 80 86 82 85 82
17 37 44 36 252 262 271 306 344 46 47 22 15 12 51 22 19 265 24 45 43 278 338 357 12 23 10 33 32 83 335 56 50 77 91 66 259 73 41 72 288 84 345 64 290 67 74 73 38 129 206 194 124 84 81 65 65 56 38 30 35 49 69 68 53 31 54 69 58 53 46 52 62 58 54 81 95 92 85 79 65 53 58 59 57 50 26
318 294 215 207 255 291 338 5 49 30 8 89 104 354 294 243 341 15 82 88 342 314 335 42 10 53 36 42 52 80 8 136 90 56 82 42 348 96 134 23 0 100 129 241 72 39 68 109 127 95 264 258 12 58 71 78 38 50 32 18 13 20 50 70 65 39 41 74 77 69 51 60 58 47 32 59 78 79 74 69 68 54 50 53 66 52 35
24 26 51 35 24 351 65 30 316 89 72 6 29 32 352 44 328 113 304 324 308 85 260 28 299 89 349 33 23 46 104 2 41 7 67 102 14 49 76 23 46 64 227 10 61 89 78 161 117 249 247 6 25 53 55 62 82 91 73 38 30 39 57 63 57 61 31 40 46 54 55 58 49 38 40 58 81 79 58 61 56 52 29 47 49 45 27
11 34 33 342 45 288 70 7 298 57 23 8 77 114 313 31 327 19 42 353 9 354 308 116 205 113 84 344 84 11 10 7 81 84 58 309 70 34 57 54 151 252 33 25 22 91 170 87 195 215 2 29 38 20 2 358 356 33 52 30 20 30 48 72 70 71 49 37 44 44 50 55 57 39 38 39 37 67 80 65 41 31 38 65 60 51 29
63 358 33 16 31 282 60 329 11 95 93 298 115 173 137 154 221 161 144 296 68 234 353 24 61 81 75 295 36 346 55 155 314 94 222 79 60 30 97 169 260 31 84 155 49 349 18 283 279 37 18 31 11 0 0 1 3 7 38 37 23 18 18 34 34 43 48 42 36 32 48 39 57 57 48 47 41 40 48 42 359 16 23 57 59 52 26
66 149 55 78 28 354 97 82 43 28 335 64 106 200 164 246 142 178 323 22 15 358 55 3 62 82 63 287 116 182 11 56 57 354 97 56 96 59 238 273 61 74 32 41 70 149 199 220 100 63 21 8 5 358 2 359 357 359 44 50 15 19 21 31 37 49 47 39 33 44 46 40 46 61 61 51 43 37 41 29 14 21 14 46 36 28 359
66 10 87 126 90 282 61 94 306 252 319 326 213 178 197 272 196 128 51 15 30 282 268 273 93 108 112 45 46 9 35 31 93 278 64 47 132 241 18 85 107 30 121 182 251 255 251 245 48 39 7 354 348 357 7 12 9 24 39 43 31 26 19 29 32 38 22 33 43 43 39 34 24 39 75 63 43 36 31 25 29 28 37 47 31 20 23
92 239 89 89 212 204 62 345 165 70 8 28 283 271 255 227 43 2 343 0 272 279 317 54 72 16 26 304 77 140 194 309 81 320 129 181 57 40 21 37 353 263 186 144 211 218 193 40 19 359 357 355 351 350 352 9 14 18 14 21 21 25 21 24 32 28 18 28 31 35 38 32 33 29 43 70 72 40 27 14 34 36 36 33 32 29 29
130 71 83 162 184 100 132 320 68 72 348 337 353 36 16 47 48 323 324 334 347 320 317 87 174 84 46 294 59 6 27 314 91 247 49 27 104 201 135 185 187 42 258 163 179 148 67 16 353 341 350 358 2 7 352 8 25 27 21 16 14 14 15 31 33 28 25 32 34 36 29 18 18 49 61 58 69 43 24 30 42 42 34 31 27 27 24
43 22 29 30 38 9 291 149 81 45 344 17 21 3 348 31 10 342 344 343 311 315 270 224 347 94 218 89 6 18 41 330 141 48 58 314 172 114 69 21 239 181 199 68 98 13 22 349 343 346 348 354 1 5 352 353 14 27 21 19 3 12 15 20 19 20 22 27 25 33 29 36 30 28 39 40 37 339 62 53 39 31 20 24 31 23 18
29 88 125 232 115 251 327 95 111 140 56 11 357 340 1 345 320 297 355 340 311 348 40 82 199 89 57 32 32 49 273 202 53 49 157 143 164 85 148 175 239 189 135 161 276 356 354 306 343 298 329 339 4 359 356 352 352 357 9 24 15 19 12 22 16 18 15 20 19 32 34 27 352 314 278 288 52 92 64 52 42 30 12 8 29 35 20
38 47 41 113 82 75 19 68 44 74 106 238 358 286 3 316 323 301 327 303 305 79 119 257 73 64 71 123 212 189 15 42 297 94 40 295 113 131 209 198 210 29 358 350 263 293 45 263 195 320 320 329 343 348 345 340 348 3 9 12 15 18 16 14 14 12 8 15 20 25 8 355 352 349 7 74 71 59 38 4 360 12 5 356 348 358 12